Home   Weather   Jastrzębie Zdrój   Past weeks

Flag for Poland Past Weather in Jastrzębie Zdrój, Poland — Yesterday and Last 2 Weeks

Now
60 °F

Partly sunny.


Feels Like: 59 °F
Forecast: 48 / 64 °F
Wind: 7 mph from North

Location: Ostrava / Mosnov

Current Time: May 24, 2017 at 7:40:29 pm

Latest Report: May 24, 2017 at 6:00 pm


Visibility: 19 mi

Pressure: 30.03 "Hg

Humidity: 53%

Dew Point: 43 °F

Location of Jastrzębie ZdrójLocation

Past Weather in Jastrzębie Zdrój — Graph

°F

Jastrzębie Zdrój Temperature Yesterday

Maximum temperature yesterday: 74 °F (at 1:00 pm)
Minimum temperature yesterday: 49 °F (at 4:00 am)
Average temperature yesterday: 61 °F

High & Low Weather Summary for the Past Weeks

 TemperatureHumidityPressure
High81 °F (May 19, 4:00 pm)98% (May 14, 5:00 am)30.42 "Hg (May 14, 5:00 am)
Low31 °F (May 10, 5:00 am)30% (May 19, 4:00 pm)29.62 "Hg (May 12, 5:00 am)
Average58 °F69%30.04 "Hg
* Reported May 9 6:00 pm — May 24 6:00 pm, Jastrzębie Zdrój. Weather by CustomWeather, © 2017

Note: Actual official high and low records may vary slightly from our data, if they occured in-between our weather recording intervals... More about our weather records

Advertising

Jastrzębie Zdrój Weather History for the Previous 24 Hours

Scroll right to see more
 ConditionsComfort  
Time TempWeatherWind HumidityBarometerVisibility
6:00 pm
Wed, May 24
60 °FPartly sunny.7 mph53%30.03 "Hg19 mi
5:00 pm58 °FPartly sunny.5 mph57%30.02 "Hg16 mi
4:00 pm58 °FOvercast.5 mph63%30.01 "Hg16 mi
3:00 pm59 °FOvercast.6 mph64%30.01 "Hg19 mi
2:00 pm58 °FOvercast.3 mph67%30.02 "Hg16 mi
1:00 pm58 °FOvercast.6 mph76%30.01 "Hg16 mi
12:00 pm58 °FOvercast.6 mph83%30.00 "Hg7 mi
11:00 am56 °FRain showers. Overcast.N/A89%30.01 "Hg2 mi
10:00 am60 °FOvercast.5 mph84%29.99 "Hg16 mi
9:00 am59 °FOvercast.5 mph87%29.99 "Hg12 mi
8:00 am57 °FOvercast.3 mph90%29.99 "Hg12 mi
7:00 am56 °FLight rain. Overcast.2 mph90%30.00 "Hg12 mi
6:00 am57 °FLight rain. Overcast.5 mph83%29.99 "Hg7 mi
5:00 am58 °FPartly sunny.6 mph79%29.97 "Hg7 mi
4:00 am54 °FFog.5 mph90%29.96 "Hg5 mi
3:00 am54 °FPassing clouds.3 mph95%29.97 "Hg7 mi
2:00 am55 °FPassing clouds.3 mph92%29.97 "Hg9 mi
1:00 am57 °FPassing clouds.3 mph91%29.98 "Hg9 mi
12:00 am58 °FPassing clouds.2 mph90%30.00 "Hg9 mi
11:00 pm
Tue, May 23
59 °FThunderstorms. Passing clouds.5 mph88%30.01 "Hg12 mi
10:00 pm59 °FPassing clouds.3 mph93%30.01 "Hg12 mi
9:00 pm62 °FPassing clouds.3 mph83%29.98 "Hg12 mi
8:00 pm63 °FPartly sunny.2 mph83%29.97 "Hg12 mi
7:00 pm64 °FPartly sunny.2 mph84%29.98 "Hg12 mi
Weather by CustomWeather, © 2017

See weather overviewHow to use our weather pages